Titan — WDG3294 — position and weather

sailwx.info

Track history (hours):
 
Tides and Currents Weather Stations Pressure Air Temp Water Temp Dewpoint Dewpoint Depression Visibility Wind Speed Wind Dir Waves Ship Positions

Titan

Owner: Titan Fishing, LLC, New Bedford, MA. More information available from US FCC via Universal Licensing System and Coast Guard Vessel Documentation Center.

Last reported at 2014-Nov-26 07:05 UTC. Time now 2014-Nov-26 08:44 UTC.
Position N 41°37' W 071°24'.

; draft 4 m.

Type: Other ship. MMSI: 367524560.

Date/timePositionNaut miles runAvg speedWind from/ knotsBaromVisibWave heightAir tempDewpointWater temp
2014-Nov-26 07:05N 41°37' W 071°24'4 6.7
2014-Nov-26 06:33N 41°33' W 071°24'37 7.0
2014-Nov-26 01:17N 41°15' W 070°41'6 8.2
2014-Nov-26 00:33N 41°13' W 070°34'9 8.6
2014-Nov-25 23:33N 41°10' W 070°23'9 9.0
2014-Nov-25 22:33N 41°07' W 070°11'9 9.5
2014-Nov-25 21:33N 41°04' W 069°60'10 9.6
2014-Nov-25 20:32N 41°00' W 069°48'9 9.3
2014-Nov-25 19:33N 41°02' W 069°36'8 8.3
2014-Nov-25 18:33N 41°04' W 069°25'7 7.1
2014-Nov-25 17:33N 41°06' W 069°16'  
Track history (hours):
 
Tides and Currents Weather Stations Pressure Air Temp Water Temp Dewpoint Dewpoint Depression Visibility Wind Speed Wind Dir Waves Ship Positions

Titan

Owner: Titan Fishing, LLC, New Bedford, MA. More information available from US FCC via Universal Licensing System and Coast Guard Vessel Documentation Center.

Last reported at 2014-Nov-26 07:05 UTC. Time now 2014-Nov-26 08:44 UTC.
Position N 41°37' W 071°24'.

; draft 4 m.

Type: Other ship. MMSI: 367524560.

Date/timePositionNaut miles runAvg speedWind from/ knotsBaromVisibWave heightAir tempDewpointWater temp
2014-Nov-26 07:05N 41°37' W 071°24'4 6.7
2014-Nov-26 06:33N 41°33' W 071°24'37 7.0
2014-Nov-26 01:17N 41°15' W 070°41'6 8.2
2014-Nov-26 00:33N 41°13' W 070°34'9 8.6
2014-Nov-25 23:33N 41°10' W 070°23'9 9.0
2014-Nov-25 22:33N 41°07' W 070°11'9 9.5
2014-Nov-25 21:33N 41°04' W 069°60'10 9.6
2014-Nov-25 20:32N 41°00' W 069°48'9 9.3
2014-Nov-25 19:33N 41°02' W 069°36'8 8.3
2014-Nov-25 18:33N 41°04' W 069°25'7 7.1
2014-Nov-25 17:33N 41°06' W 069°16'  

Dump ship's entire track history